Regional Weather Roundup
Issued by NWS

Home | Current Version | Previous Version | Graphics & Text | Print | Product List | Glossary On
Versions: 1 2 3 4 5 6 7 8 9 10 11 12 13 14 15 16 17 18 19 20 21 22 23 24 25 26 27 28 29 30 31 32 33 34 35 36 37 38 39 40 41 42 43 44 45 46 47 48 49 50
640
ASUS43 KFSD 220502
RWRSD

WEATHER ROUNDUP FOR SOUTH DAKOTA
NATIONAL WEATHER SERVICE SIOUX FALLS SD
1200 AM CDT TUE AUG 22 2017

NOTE: "FAIR" INDICATES FEW OR NO CLOUDS BELOW 12,000 FEET WITH NO
SIGNIFICANT WEATHER AND/OR OBSTRUCTIONS TO VISIBILITY.


SDZ001>005-009-010-012>017-220600-
NORTHWEST AND NORTH CENTRAL SOUTH DAKOTA

CITY           SKY/WX    TMP DP  RH WIND       PRES   REMARKS
BUFFALO          N/A     63  39  41 CALM      30.14S
FAITH            N/A     60  47  61 NE6       30.17S
MOBRIDGE       CLEAR     53  47  79 N5        30.11R
$$

SDZ012>016-024>037-041>051-057-063-072>074-220600-
SOUTHWEST AND SOUTH CENTRAL SOUTH DAKOTA

CITY           SKY/WX    TMP DP  RH WIND       PRES   REMARKS
RAPID CTY ARPT CLEAR     54  41  61 NE7       30.21R
PIERRE         CLEAR     61  48  62 N9        30.11R
CUSTER         CLEAR     56  34  43 NE6       30.31S
ELLSWORTH AFB  CLEAR     64  40  40 N3        30.20S
PHILIP         CLEAR     59  46  62 CALM      30.16R
SPEARFISH      FAIR      55  39  54 S3        30.25S
WINNER         FAIR      61  53  75 N8        30.13R
$$

SDZ004>011-016>023-039-040-220600-
NORTHEAST SOUTH DAKOTA

CITY           SKY/WX    TMP DP  RH WIND       PRES   REMARKS
ABERDEEN       CLEAR     57  49  74 N10       30.06R
WATERTOWN      CLEAR     61  56  83 NW9       30.03R
BROOKINGS      CLEAR     62  59  90 NW8       30.03R
SISSETON         N/A     60  55  83 NW10      30.01R
$$

SDZ017-020-022-023-036>040-048>070-220600-
SOUTHEAST SOUTH DAKOTA

CITY           SKY/WX    TMP DP  RH WIND       PRES   REMARKS
SIOUX FALLS    CLEAR     64  63  96 W6        30.01S
HURON          CLEAR     56  53  90 NW8       30.06R
CHAMBERLAIN    CLEAR     66  56  68 NW8       30.10S
MITCHELL       CLEAR     63  57  81 N12       30.06R
YANKTON        CLEAR     64  63  96 W7        30.02F
$$

ABBREVIATIONS USED IN REMARKS
   TC - TEMPERATURE IN CELSIUS
  WCI - WIND CHILL INDEX
   HX - HEAT INDEX
  VSB - VISIBILITY





USA.gov is the U.S. government's official web portal to all federal, state and local government web resources and services.